Location: Unspecified
(0.0000°N, 0.0000°E)
Time: 04:02:06
(UTC+00:00)

deb Ablestar - Visible Passes

Search period start: 20 July 2024 00:00
Search period end: 30 July 2024 00:00
Orbit: 1039 x 1068 km, 90.2° (Epoch: 19 July)

Date Brightness Start Highest point End Pass type
(mag) Time Alt. Az. Time Alt. Az. Time Alt. Az.
20 Jul 10.7 18:59:15 10° NE 19:04:14 23° E 19:06:56 18° SE visible
20 Jul 11.1 20:44:12 10° NNW 20:49:57 32° W 20:53:21 21° SW visible
21 Jul 9.5 19:46:06 10° N 19:52:42 76° E 19:56:43 26° S visible
22 Jul 10.7 18:50:34 10° NE 18:55:29 22° E 19:00:14 10° SE visible
22 Jul 11.1 20:35:24 10° NNW 20:41:12 33° W 20:46:40 11° SW visible
23 Jul 9.5 19:37:20 10° N 19:43:57 74° E 19:50:25 11° S visible
24 Jul 10.7 18:41:53 10° NE 18:46:44 21° E 18:51:33 10° SE visible
24 Jul 11.1 20:26:36 10° NNW 20:32:26 34° W 20:38:19 10° SSW visible
25 Jul 9.6 19:28:36 10° N 19:35:12 73° E 19:41:49 10° S visible
26 Jul 10.8 18:33:13 10° NE 18:37:59 21° E 18:42:43 10° SE visible
26 Jul 11.1 20:17:48 10° NNW 20:23:41 35° W 20:29:35 10° SSW visible
27 Jul 9.6 19:19:51 10° N 19:26:27 71° E 19:33:02 10° S visible
28 Jul 10.8 18:24:32 10° NE 18:29:13 20° E 18:33:52 10° SE visible
28 Jul 11.1 20:09:00 10° NNW 20:14:56 35° W 20:20:52 10° SSW visible
29 Jul 9.6 19:11:06 10° NNE 19:17:41 69° E 19:24:15 10° S visible
